Погода в Гнилом

Россия / Воронежская область     50°48′47″N   39°04′00″E
темп.,
°C
ветер,
м/с
пор.,
м/с
влажн.,
%
обл.,
%
осадки,
мм/ч
давл.,
гПа
погр.,
м
24 июня, чт
чт2400:00+23всв34745 0.0 101856
03:00+21всв35735 0.0 101874
06:00+22всв37735 0.0 1018132
09:00+27в46585 0.0 1018355
12:00+31в454593 0.0 1018874
15:00+32всв454443 0.0 10171792
18:00+30вюв366040 0.0 1016212
21:00+22ссв486987 0.0 1017128
25 июня, пт
пт2500:00+22св367762 0.0 101799
03:00+21всв238259 0.0 101626
06:00+22всв368133 0.0 1016156
09:00+27всв466353 0.0 1016440
12:00+31всв5651100 0.0 10151117
15:00+31в5549100 0.0 10151716
18:00+30в366391 0.0 1014340
21:00+25в35736 0.0 101374
26 июня, сб
сб2600:00+23св22795 0.0 101422
03:00+21всв348393 0.4 101356
06:00+22всв368436 0.4 1013133
09:00+28всв346247 0.4 1013458
12:00+31всв344938 0.0 10131027
15:00+32всв454632 0.0 10121240
18:00+30всв365844 0.0 1011303
21:00+25всв33735 0.0 101241
27 июня, вс
вс2700:00+22св35826 0.0 101184
03:00+21св348036 0.0 101263
06:00+22всв398057 0.0 1012189
09:00+25всв587498 0.0 1011275
12:00+31в685026 0.0 1011872
15:00+33в69475 0.0 10101462
18:00+31в595825 0.0 1009444
21:00+26в4137334 0.0 1009261
28 июня, пн
пн2800:00+26вюв6166117 0.0 1008420
03:00+25юв41155100 0.0 1008247
06:00+23юв23754 0.0 100884
09:00+28ю23635 0.0 1008453
12:00+31ююз335443 0.0 10091375
15:00+32ююв344930 0.0 10081894
18:00+21ююв5984100 3.9 1006188
21:00+20ю3486100 10.3 100980